Back to catalog

STARLINK-36712

AliveCommunicationsSSO
NORAD 67700·PAYLOAD·🇺🇸 United States

Launched Feb 7, 2026 from Vandenberg Space Force Base

Loading…

Next Passes (next 24 hours)

TLE

FreshSource: CelesTrak SupGP

Epoch: Sep 15, 2026, 03:38 UTC

1 67700C 26025H   26258.15187500  .00012491  00000+0  38783-3 0  2581
2 67700  97.2848   8.1236 0000896  89.0250 350.3511 15.33426589    12

Track STARLINK-36712 in real time with AllMySat

Download on the App Store